STARLINK-5641, 55359

Orbit data source: Space-Track

STARLINK-5641, 55359 is a payload satellite owned by SpaceX/Seattle (US) in LEO that was launched on Thu, 26 Jan 2023 UTC via an FALCON 9 launch vehicle from the Air Force Eastern Test Range (AFETR). Payload-class satellites include a variety of spacecraft equipped with specific instruments for various scientific and technological missions. These include communications satellites like Starlink; space stations such as the ISS; scientific satellites like the Hubble; Earth observation satellites from companies like Planet Labs, Umbra, and HawkEye 360; GPS; miniature CubeSats for education and research; and military/defense satellites.

Loading next visibility...
Identifier
55359, 2023-013AE
Orbit
LEO
Country
Flag of USUS
Related business
Manufacturer
SpaceX/Seattle
Mission
Operational Commercial Communications
Bus & Motor
STARLINK, Unknown motor
Mass
305 kg wet, ~290 kg dry
Launch date (UTC)
2023-01-26 (3 years ago)
Launch vehicle
FALCON 9
Launch site
Air Force Eastern Test Range (AFETR)
Object type
Payload
Rocket body
Debris
Shape & HBR
Box + 1 Pan, 10.1 m
Radar Cross Section
13.562 m², Large (>1 m²)

Expand to show TLE details & history
Last TLE update: 1 day ago

TLE from 1 day ago
0 STARLINK-5641
1 55359U 23013AE  25348.46688249  .00001023  00000-0  90806-4 0  9998
2 55359  43.0049  43.0669 0001400 262.6697  97.3986 15.02530773158896
Epoch: 2025-12-14T11:12Z
TLE epoch observation values (Epoch: 2025-12-14T11:12:18.647Z)
Latitude
-0.00002°
Longitude
151.60979°
Altitude
558.999 km
Speed
7.584 km/s
True Right ascension
02h 52m 16s
True Declination
0° 00' 00"
Sunlit
Object was in full shadow at epoch
Visualization orbit readout
Latitude
Unknown
Longitude
Unknown
Altitude
Unknown
Speed
Unknown
Apparent Right ascension
Unknown
Apparent Declination
Unknown
Sunlit
N/A
Visualization observer readout
Local Sidereal Time
13:25:43
Azimuth
Unknown
Elevation
Unknown
Doppler factor
Unknown
Orbital elements
Apogee altitude
561.99 km
Perigee altitude
560.047 km
Semi-major axis
6,939.156 km
Eccentricity
0.00014
Inclination
43.0049°
RAAN
43.0669°
Arg. of periapsis
262.6697°
True anomaly
97.41451°
Mean anomaly
97.3986°
Eccentric anomaly
97.40655°
Mean motion
3.75477 °/min
Orbital period
95.88 mins
BSTAR
0.000090806
Loading maneuver chart data...
Computing Atmospheric mass density...
Loading historical data...
Loading historical data...
Loading historical data...
Loading historical data...
Loading historical data...
Loading historical data...
Loading historical data...

Documentation

Showing up to 5 results
|